Regional Weather Roundup
Issued by NWS Newport/Morehead, NC

Current Version | Previous Version | Graphics & Text | Print | Product List | Glossary Off
Versions: 1 2 3 4 5 6 7 8 9 10 11 12 13 14 15 16 17 18 19 20 21 22 23 24 25 26 27 28 29 30 31 32 33 34 35 36 37 38 39 40 41 42 43 44 45 46 47 48 49 50

000
ASUS42 KMHX 250813
RWRMHX
WEATHER ROUNDUP FOR EASTERN NORTH CAROLINA
NATIONAL WEATHER SERVICE NEWPORT/MOREHEAD CITY NC
400 AM EDT MON MAY 25 2015

NOTE: "FAIR" INDICATES FEW OR NO CLOUDS BELOW 12,000 FEET
WITH NO SIGNIFICANT WEATHER AND/OR OBSTRUCTIONS TO VISIBILITY

NCZ015>017-031-032-045>047-102-103-250900-
NORTH COAST

CITY           SKY/WX    TMP DP  RH WIND       PRES   REMARKS
EDENTON        CLEAR     66  60  81 SW6       30.33S
ELIZABETH CITY CLEAR     64  60  87 S3        30.34R
KITTY HAWK     SUNNY     66  58  74 CALM      30.33S
MANTEO         CLEAR     61  57  85 CALM      30.34S

$$

NCZ045>047-081-094-103-104-250900-
CENTRAL COAST

CITY           SKY/WX    TMP DP  RH WIND       PRES   REMARKS
FRISCO         CLEAR     57  54  89 CALM      30.34S
SWANQUARTER      N/A     70 N/A N/A S8        30.30S

$$

NCZ095-097-098-100-101-250900-
SOUTHERN COAST

CITY           SKY/WX    TMP DP  RH WIND       PRES   REMARKS
BEAUFORT       CLEAR     61  58  90 CALM      30.34R
CEDAR ISLAND     N/A     64 N/A N/A S1        30.39R
JACKSONVILLE   PTCLDY    61  58  90 CALM      30.33S
PINEY ISLAND   SUNNY    N/A N/A N/A SW3       30.34R
WILMINGTON     CLEAR     61  59  93 CALM      30.32S


$$

NCZ011>013-027>030-043-044-078>080-089-090>093-098-250900-
COASTAL PLAIN

CITY           SKY/WX    TMP DP  RH WIND       PRES   REMARKS
AHOSKIE        CLEAR     57  55  92 S3        30.33S
CLINTON        PTCLDY    59  59  99 CALM      30.34S
ELIZABETHTOWN  CLEAR     59  57  95 CALM      30.33R
GOLDSBORO      CLEAR     60  57  91 CALM      30.31S
GREENVILLE     CLEAR     63  59  88 CALM      30.34R
HAVELOCK       CLEAR     59  55  87 CALM      30.35R
KENANSVILLE    CLEAR     56  55  95 CALM      30.35R FOG
KINSTON        CLEAR     58  57  96 CALM      30.34S
NEW BERN       CLEAR     59  56  89 CALM      30.35S
RICHLANDS      CLEAR     57  52  82 CALM      30.34S
ROCKY MOUNT    CLEAR     60  58  92 CALM      30.33S
WASHINGTON     CLEAR     61  58  91 CALM      30.34S
WHITEVILLE     CLEAR     57  55  94 CALM      30.32S

$$

AMZ130-135-150-152-154-156-158-170-250-252-270-ANZ085-086-088-633-658-670-250900-
MARINE OBSERVATIONS

STATION/POSITION TIME  TEMP    WIND        PRES    WAVE   SWELL
                       AIR SEA DIR/SP/G            HT/PER HT/PER
                 (UTC) (F)     (DEG/KT/KT) (MB)    (FT/S) (FT/S)
CHESAPEAKE LIGHT 0700   65     190/ 15/ 15 1026.9
64 E VA BEACH    0750   64 62  200/  6/  6 1026.9    1/ 9   2/ 9
DUCK             0700   66 62  170/  7/  8 1026.0
2 E DUCK         0711      63                N/A     1/ 8
OREGON INLET     0700   65 74  130/  4/  5 1027.1
13E OREGON INLT  0800      65                N/A     2/ 7
HATTERAS CG      0700   72 75  140/  3/  3 1026.7
DIAMOND BUOY     0750   73 77  170/  8/ 10 1027.3    2/ 6   2/ 6
CAPE LOOKOUT     0800   72     140/  7/  8 1027.0
BEAUFORT LAB     0700   71 74  150/  4/  5 1026.3
27 SE WRIGHTSVLE 0700   70 76  160/ 10/ 12   N/A
5 SE WRIGHTSVLE  0708   74 76  160/  8/ 12 1026.5
225 S CAPE HAT   0750   73 74  100/ 12/ 16 1026.1    4/ 6   2/ 6
41 SE CHARLESTON 0750   74 75  110/ 14/ 16 1024.6    5/ 7   3/ 7

$$



USA.gov is the U.S. government's official web portal to all federal, state and local government web resources and services.